Regional Weather Roundup
Issued by NWS Sioux Falls, SD

Home | Current Version | Previous Version | Text Only | Print | Product List | Glossary On
Versions: 1 2 3 4 5 6 7 8 9 10 11 12 13 14 15 16 17 18 19 20 21 22 23 24 25 26 27 28 29 30 31 32 33 34 35 36 37 38 39 40 41 42 43 44 45 46 47 48 49 50
000
ASUS43 KFSD 230510
RWRFSD

WEATHER ROUNDUP FOR SE SOUTH DAKOTA/SW MINNESOTA/NW IOWA
NATIONAL WEATHER SERVICE SIOUX FALLS SD
1200 AM CDT WED AUG 23 2017

NOTE: "FAIR" INDICATES FEW OR NO CLOUDS BELOW 12,000 FEET WITH NO
SIGNIFICANT WEATHER AND OR OBSTRUCTIONS TO VISIBILITY.


SDZ038>040-050-052>070-230600-
SOUTHEAST SOUTH DAKOTA

CITY           SKY/WX    TMP DP  RH WIND       PRES   REMARKS
BROOKINGS      CLEAR     56  51  84 CALM      30.16R
CHAMBERLAIN    CLEAR     62  54  74 E5        30.15R
HURON          CLEAR     58  55  90 E3        30.14R
MADISON        FAIR      54  54 100 SW3       30.17R
MITCHELL       CLEAR     58  51  78 S3        30.15S
SIOUX FALLS    CLEAR     58  54  86 CALM      30.16R
WINNER         FAIR      62  54  74 SE8       30.15R
YANKTON        CLEAR     60  54  80 CALM      30.16R
$$

MNZ071-072-080-081-089-090-097-098-230600-
SOUTHWEST MINNESOTA

CITY           SKY/WX    TMP DP  RH WIND       PRES   REMARKS
FAIRMONT       CLEAR     55  51  86 W5        30.13R
JACKSON        CLEAR     54  50  87 CALM      30.15R
LUVERNE        CLEAR     52  48  87 CALM      30.16R
MARSHALL       CLEAR     55  51  86 W7        30.14R
MONTEVIDEO     CLEAR     55  48  76 NW5       30.11S
PIPESTONE      CLEAR     57  52  82 CALM      30.16R
REDWOOD FALLS  CLEAR     58  50  75 W7        30.11R
TRACY          CLEAR     57  53  86 SW7       30.14S
WINDOM         CLEAR     54  50  87 CALM      30.14S
WORTHINGTON    CLEAR     53  50  89 W3        30.16R
$$

IAZ001>003-012>014-020>022-031-032-NEZ013-014-SDZ071-230600-
NORTHWEST IOWA

CITY           SKY/WX    TMP DP  RH WIND       PRES   REMARKS
CHEROKEE       CLEAR     54  54 100 CALM      30.16R
DENISON        CLEAR     54  54 100 CALM      30.18R
ESTHERVILLE    CLEAR     53  52  96 W6        30.14R
ORANGE CITY    CLEAR     57  55  94 CALM      30.16S
SHELDON        CLEAR     50  50 100 CALM      30.14S
SIOUX CITY     CLEAR     56  55  97 CALM      30.16S
SPENCER        CLEAR     52  50  93 CALM      30.15R
STORM LAKE     CLEAR     57  52  82 W7        30.16R
$$

ABBREVIATIONS USED IN REMARKS
   TC - TEMPERATURE IN CELSIUS
  WCI - WIND CHILL INDEX
   HX - HEAT INDEX
  VSB - VISIBILITY




USA.gov is the U.S. government's official web portal to all federal, state and local government web resources and services.